This demonstration page uses our WeatherBlox Daily Observations layout. Learn more.

Hourly Observations for January 10, 2018

Temp ( °F °C ) Dew Point ( °F °C ) Humidity (%) Winds ( mph kmh ) Pressure ( in mb ) Visibility ( mi km ) Precip ( " mm )
12:15 am 00:15 Clear 38 3.5 29 -1.6 70 70 S 8 13 29.71 1006 10 16.0934 0 0
12:35 am 00:35 Clear 35 1.4 28 -2.5 76 76 SSE 5 7 29.71 1006 10 16.0934 0 0
12:55 am 00:55 Clear 35 1.4 28 -2.3 77 77 S 6 9 29.71 1006 10 16.0934 0 0
1:15 am 01:15 Clear 34 0.9 27 -2.6 78 78 S 8 13 29.71 1006 10 16.0934 0 0
1:35 am 01:35 Clear 33 0.6 27 -2.7 79 79 S 6 9 29.68 1005 10 16.0934 0 0
1:55 am 01:55 Clear 33 0.7 27 -2.6 79 79 S 7 11 29.68 1005 10 16.0934 0 0
2:15 am 02:15 Clear 33 0.5 27 -2.7 79 79 S 6 9 29.68 1005 10 16.0934 0 0
2:35 am 02:35 Clear 33 0.7 27 -2.7 78 78 SSE 6 9 29.68 1005 10 16.0934 0 0
2:55 am 02:55 Clear 31 -0.7 27 -3 85 85 SSE 6 9 29.68 1005 10 16.0934 0 0
3:15 am 03:15 Clear 32 0.2 28 -2.5 82 82 S 8 13 29.68 1005 10 16.0934 0 0
3:35 am 03:35 Clear 33 0.4 28 -2.4 82 82 S 6 9 29.65 1004 10 16.0934 0 0
3:55 am 03:55 Clear 32 0 28 -2.5 83 83 S 6 9 29.65 1004 10 16.0934 0 0
4:15 am 04:15 Clear 32 -0.1 28 -2.2 86 86 S 8 13 29.65 1004 10 16.0934 0 0
4:35 am 04:35 Clear 32 -0.1 29 -1.8 88 88 S 8 13 29.65 1004 10 16.0934 0 0
4:55 am 04:55 Clear 31 -0.6 28 -2 90 90 SSE 3 6 29.62 1003 10 16.0934 0 0
5:15 am 05:15 Clear 29 -1.5 28 -2 96 96 SSE 7 11 29.62 1003 10 16.0934 0 0
5:35 am 05:35 Clear 28 -2 28 -2.3 98 98 SSE 3 6 29.65 1004 10 16.0934 0 0
5:55 am 05:55 Clear 28 -2.3 28 -2.5 99 99 SE 3 6 29.65 1004 10 16.0934 0 0
6:15 am 06:15 Clear 29 -1.5 29 -1.5 100 100 Calm 29.62 1003 10 16.0934 0 0
6:35 am 06:35 Clear 29 -1.8 29 -1.8 100 100 SSE 7 11 29.59 1002 7 11.26538 0 0
6:55 am 06:55 Clear 28 -2.3 28 -2.3 100 100 SE 7 11 29.62 1003 7 11.26538 0 0
7:15 am 07:15 Clear with Mist and Fog 28 -2.3 28 -2.3 100 100 SE 6 9 29.62 1003 5 8.0467 0 0
7:35 am 07:35 Cloudy with Mist and Fog 29 -1.9 29 -1.9 100 100 SSE 7 11 29.62 1003 1.75 2.816345 0 0
7:55 am 07:55 Cloudy with Freezing Fog 31 -0.7 31 -0.7 100 100 SSE 6 9 29.59 1002 0.25 0.402335 0 0
8:15 am 08:15 Cloudy with Freezing Fog 31 -0.5 31 -0.5 100 100 SSE 5 7 29.59 1002 0.25 0.402335 0 0
8:35 am 08:35 Cloudy with Fog 32 0 32 0 100 100 S 6 9 29.59 1002 5 8.0467 0 0
8:55 am 08:55 Cloudy with Fog 32 0.1 32 0.1 100 100 S 6 9 29.59 1002 5 8.0467 0 0
9:15 am 09:15 Cloudy with Fog 33 0.3 33 0.3 100 100 S 5 7 29.59 1002 5 8.0467 0 0
9:35 am 09:35 Cloudy with Fog 33 0.5 33 0.5 100 100 S 3 6 29.59 1002 5 8.0467 0 0
9:55 am 09:55 Cloudy with Fog 33 0.8 33 0.8 100 100 S 3 6 29.56 1001 5 8.0467 0 0
10:15 am 10:15 Cloudy with Fog 34 1 34 1 100 100 S 8 13 29.53 1000 0.25 0.402335 0 0
10:35 am 10:35 Cloudy with Mist and Fog 34 1.3 34 1.3 100 100 SSE 6 9 29.53 1000 0.75 1.207005 0 0
10:55 am 10:55 Cloudy with Mist and Fog 35 1.6 35 1.6 100 100 SE 8 13 29.53 1000 3 4.82802 0 0
11:15 am 11:15 Cloudy with Mist and Fog 36 2.2 36 2.2 100 100 S 6 9 29.53 1000 5 8.0467 0 0
11:35 am 11:35 Cloudy 37 2.5 37 2.5 100 100 S 8 13 29.5 999 7 11.26538 0 0
11:55 am 11:55 Partly Cloudy 39 3.7 38 3.6 99 99 S 7 11 29.5 999 10 16.0934 0 0
12:15 pm 12:15 Partly Cloudy with Thunderstorms 40 4.4 37 2.6 88 88 S 5 7 29.47 998 10 16.0934 0.03 0.762
12:35 pm 12:35 Partly Cloudy 41 5 36 2.2 82 82 SW 3 6 29.44 997 10 16.0934 0.03 0.762
12:55 pm 12:55 Sunny 42 5.6 36 2.2 79 79 SSW 3 6 29.44 997 10 16.0934 0.03 0.762
1:15 pm 13:15 Sunny 44 6.6 36 2.2 74 74 WSW 3 6 29.44 997 10 16.0934 0 0
1:35 pm 13:35 Sunny 45 7.2 36 2.1 70 70 W 3 6 29.41 996 10 16.0934 0 0
1:55 pm 13:55 Sunny 45 7.1 36 2.2 71 71 Calm 29.41 996 10 16.0934 0 0
2:15 pm 14:15 Sunny 45 7 36 2.2 72 72 Calm 29.38 995 10 16.0934 0 0
2:35 pm 14:35 Sunny 45 7.2 36 2.1 70 70 Calm 29.38 995 10 16.0934 0 0
2:55 pm 14:55 Sunny 45 7.2 36 2.2 71 71 SE 7 11 29.41 996 10 16.0934 0 0
3:15 pm 15:15 Sunny 45 7.2 36 2 70 70 SE 10 17 29.41 996 10 16.0934 0 0
3:35 pm 15:35 Sunny 45 7.2 35 1.7 68 68 SE 6 9 29.41 996 10 16.0934 0 0
3:55 pm 15:55 Sunny 46 7.5 35 1.7 67 67 Calm 29.41 996 10 16.0934 0 0
4:15 pm 16:15 Sunny 45 7.3 35 1.5 67 67 Calm 29.41 996 10 16.0934 0 0
4:35 pm 16:35 Sunny 45 7.1 35 1.5 68 68 SE 5 7 29.41 996 10 16.0934 0 0
4:55 pm 16:55 Sunny 46 7.9 35 1.6 65 65 Calm 29.41 996 10 16.0934 0 0
5:15 pm 17:15 Sunny 46 7.9 34 1.3 63 63 Calm 29.41 996 10 16.0934 0 0
5:35 pm 17:35 Clear 44 6.5 33 0.8 67 67 NW 8 13 29.44 997 10 16.0934 0 0
5:55 pm 17:55 Clear 41 4.8 33 0.5 74 74 NW 6 9 29.44 997 10 16.0934 0 0
6:15 pm 18:15 Clear 40 4.2 32 0.1 75 75 NNW 6 9 29.44 997 10 16.0934 0 0
6:35 pm 18:35 Partly Cloudy 38 3.5 33 0.3 80 80 N 8 13 29.47 998 10 16.0934 0 0
6:55 pm 18:55 Partly Cloudy 36 2.4 33 0.3 86 86 N 7 11 29.5 999 10 16.0934 0 0
7:15 pm 19:15 Mostly Cloudy 37 3 33 0.5 84 84 NNE 7 11 29.5 999 10 16.0934 0 0
7:35 pm 19:35 Cloudy 40 4.3 35 1.5 82 82 N 12 19 29.5 999 10 16.0934 0 0
7:55 pm 19:55 Cloudy 37 3 33 0.8 86 86 NE 6 9 29.56 1001 10 16.0934 0 0
8:15 pm 20:15 Mostly Cloudy 37 2.7 34 1 89 89 NNE 13 20 29.56 1001 10 16.0934 0 0
8:35 pm 20:35 Partly Cloudy 38 3.5 34 1.2 85 85 N 22 35 29.59 1002 10 16.0934 0 0
8:55 pm 20:55 Partly Cloudy 37 3 34 1.1 87 87 N 21 33 29.62 1003 10 16.0934 0 0
9:15 pm 21:15 Cloudy 37 2.7 33 0.6 86 86 N 28 44 29.62 1003 10 16.0934 0 0
9:35 pm 21:35 Cloudy 36 2.1 32 0.1 87 87 N 29 46 29.68 1005 10 16.0934 0 0
9:55 pm 21:55 Cloudy 34 0.9 32 -0.1 93 93 N 29 46 29.71 1006 7 11.26538 0 0
10:15 pm 22:15 Cloudy 31 -0.4 28 -2 89 89 N 29 46 29.74 1007 10 16.0934 0 0
10:35 pm 22:35 Cloudy 29 -1.6 24 -4.6 80 80 N 25 41 29.8 1009 10 16.0934 0 0
10:55 pm 22:55 Cloudy 27 -3 21 -6.3 78 78 N 30 48 29.8 1009 10 16.0934 0 0
11:15 pm 23:15 Cloudy 25 -3.8 19 -7.4 76 76 N 26 43 29.85 1011 10 16.0934 0 0
11:35 pm 23:35 Cloudy 24 -4.3 18 -7.8 77 77 N 24 39 29.85 1011 10 16.0934 0 0
11:55 pm 23:55 Cloudy 22 -5.8 15 -9.7 74 74 N 26 43 29.91 1013 10 16.0934 0 0

Powered by AerisWeather